2017-008BW

Last updated on Thu Mar 09 2017 00:15:03 GMT+0000 (Coordinated Universal Time)

1 42016U 17008BW 17067.89438686 .00003032 00000-0 13395-3 0 9994 2 42016 97.5082 129.5070 0006008 198.2819 161.8122 15.22495051 3202
UTC large
Height (km)
Speed (km/s)
/
Latitude / Longitude
Inclination (degrees)
Orbital Period (minutes)
Azimuth
Elevation
Range (km)
Doppler Factor

Next 0 passes for location: London (51.5072 / 0.1276)

Sorry there are no passes over London.